User: anonymous   Login
Location: D�derode
(51.8092°N, 10.1065°E)
Time: 20:33:51
(UTC+00:00)
Language:

Cosmos 1869 Rocket - Orbit

View from above orbital plane
View from above orbital plane
View from above satellite
View from above satellite

Ground track
Ground track

The orbit data is extracted from the following two-line orbital elements,

1 18215U 87062B   21126.85533596  .00000064  00000-0  47902-5 0  9993
2 18215  82.5155  32.9169 0021738 124.9255 302.6007 14.83259958805313
Epoch (UTC): 06 May 2021 20:31:41
Eccentricity: 0.0021738
inclination: 82.5155°
perigee height: 604 km
apogee height: 634 km
right ascension of ascending node: 32.9169°
argument of perigee: 124.9255°
revolutions per day: 14.83259958
mean anomaly at epoch: 302.6007°
orbit number at epoch: 80531

The dashed part of the orbit path shows where the satellite is in the earth's shadow,  

DLR